Regional Weather Roundup
Issued by NWS

Home | Current Version | Previous Version | Text Only | Print | Product List | Glossary On
Versions: 1 2 3 4 5 6 7 8 9 10 11 12 13 14 15 16 17 18 19 20 21 22 23 24 25 26 27 28 29 30 31 32 33 34 35 36 37 38 39 40 41 42 43 44 45 46 47 48 49 50
000
ASUS43 KIND 020209
RWRIN

WEATHER ROUNDUP FOR INDIANA
NATIONAL WEATHER SERVICE INDIANAPOLIS IN
1000 PM EDT TUE SEP 01 2015

NOTE: "FAIR" INDICATES FEW OR NO CLOUDS BELOW 12,000 FEET WITH NO
SIGNIFICANT WEATHER AND/OR OBSTRUCTIONS TO VISIBILITY.

* - STATION DOES NOT REPORT WEATHER SUCH AS PRECIPITATION OR FOG.

+ - STATION NOT QUALITY CONTROLLED BY THE NATIONAL WEATHER SERVICE.
    USE DATA WITH CAUTION...ESPECIALLY DEWPOINT AND RELATIVE
    HUMIDITY OBSERVATIONS.

INZ001>003-010>013-019-020-020300-
NORTHWEST INDIANA

CITY           SKY/WX    TMP DP  RH WIND       PRES   REMARKS
GARY /AIRPORT/ PTCLDY    81  70  69 S8        30.05R
KNOX *+        CLEAR     73  68  83 SW5       30.06R
LA PORTE +     CLEAR     76  76  99 SW6       30.07R
MICHIGAN CITY+ CLEAR     75  68  78 S8        30.05S
MONTICELLO +   CLEAR     75  71  85 S3        30.07R
RENSSELAER +   CLEAR     73  72  94 S5        30.08R
VALPARAISO     CLEAR     75  69  81 S6        30.07R

$$

LMZ046-743>745-020300-
SOUTHERN LAKE MICHIGAN

STATION/POSITION TIME  TEMP    WIND        PRES    WAVE
                       AIR SEA DIR/SP/G            HT
                 (UTC) (F)     (DEG/KT/KT) (MB)    (FT)
BURNS HARBOR     0100   80     190/ 11/ 15 1017.3R
MICHIGAN CITY    0100   80     170/ 11/ 13   N/A
5NW MICH CITY    0200   77 73  210/ 10/ 12   N/A     1

$$

INZ004-005-014>016-021>024-020300-
NORTH CENTRAL INDIANA

CITY           SKY/WX    TMP DP  RH WIND       PRES   REMARKS
GOSHEN         CLEAR     75  68  78 S5        30.07R
LOGANSPORT +   CLEAR     70  63  78 SW5       30.09R
PERU/GRISSOM   CLEAR     72  67  83 SW5       30.08R
ROCHESTER +    CLEAR     77  70  78 CALM      30.09R
SOUTH BEND     CLEAR     76  69  79 SW9       30.07R
WARSAW +       CLEAR     77  68  73 SW3       30.08R

$$

INZ006>009-017-018-025>027-020300-
NORTHEAST INDIANA

CITY           SKY/WX    TMP DP  RH WIND       PRES   REMARKS
ANGOLA *+      CLEAR     73  72  94 CALM      30.08R
AUBURN +       CLEAR     73  68  83 CALM      30.09R
FORT WAYNE     CLEAR     72  67  84 S5        30.09S
HUNTINGTON +   CLEAR     74  68  80 CALM      30.09R

$$

INZ028-029-035-036-043>045-051>053-020300-
WEST CENTRAL INDIANA

CITY           SKY/WX    TMP DP  RH WIND       PRES   REMARKS
CRAWFORDSVL +  CLEAR     68  66  94 S3        30.10R
GREENCASTLE +  CLEAR     70  64  83 CALM      30.11R
LAFAYETTE      CLEAR     74  67  78 CALM      30.08R
TERRE HAUTE    CLEAR     72  67  84 SW3       30.10R

$$

INZ030>032-037>040-046>048-054>057-064-065-020300-
CENTRAL INDIANA

CITY           SKY/WX    TMP DP  RH WIND       PRES   REMARKS
FRANKFORT +    CLEAR    N/A N/A N/A CALM      30.11S
GREENWOOD *+   CLEAR     70  64  83 CALM      30.11R
INDIANAPOLIS   PTCLDY    76  66  71 SW6       30.09S
-EAGLE CREEK   CLEAR     75  69  81 CALM      30.10R
KOKOMO *+      CLEAR     72  63  73 CALM      30.09R
MARION +       CLEAR     71  63  76 CALM      30.11R
MT COMFORT *+  CLEAR     70  66  88 S3        30.11R
SHELBYVILLE    CLEAR     72  67  84 CALM      30.10R
ZIONSVILLE +   CLEAR     69  65  87 CALM      30.11R

$$

INZ033-034-041-042-049-050-058-059-020300-
EAST CENTRAL INDIANA

CITY           SKY/WX    TMP DP  RH WIND       PRES   REMARKS
MUNCIE         CLEAR     74  68  81 S3        30.10S

$$

INZ060-061-067>069-081>083-085>088-020300-
SOUTHWEST INDIANA

CITY           SKY/WX    TMP DP  RH WIND       PRES   REMARKS
EVANSVILLE     CLEAR     77  71  82 CALM      30.10R
HUNTINGBURG *+ CLEAR     73  68  83 CALM      30.11R
WASHINGTON +   PTCLDY    72  68  87 CALM      30.09R

$$

INZ062-063-066-070>080-084-089>092-020300-
SOUTH CENTRAL AND SOUTHEAST INDIANA

CITY           SKY/WX    TMP DP  RH WIND       PRES   REMARKS
BLOOMINGTON    CLEAR     71  68  90 CALM      30.12R
MADISON *+     CLEAR     72  68  88 CALM      30.13S
NORTH VERNON + CLEAR     75  73  94 CALM      30.11R
SEYMOUR +      CLEAR     72  68  88 CALM      30.10R

$$



USA.gov is the U.S. government's official web portal to all federal, state and local government web resources and services.